Find Starlink 32138

NORAD ID: 60255 Int'l Des: 2024-131 Owner: SPXS Country: US Constellation: starlink operational
LEOCIRCULAR

Current View

Loading 3D Globe...

About Starlink 32138

Starlink 32138 (NORAD 60255) is a starlink constellation satellite (v2 mini) launched Jul 27, 2024 by SPXS of US. It operates in LEO, CIRCULAR orbit with a mass of 730.00 kg.

Upcoming Passes

Passes for default location (London). Set your location on the main map for personalized predictions.

Altitude History

Loading altitude history...

Two-Line Element Set

1 60255U 24131A 26236.61005922 .00000774 00000-0 36690-4 0 9999
2 60255 53.1610 351.3520 0001214 80.3528 279.7610 15.31710226117749
Epoch: Aug 24, 2026 • Age: 21 hours

Current Status

Altitude 471.1 km
Apogee / Perigee N/A
Velocity 7.63 km/s
Sub-Earth Point 4.72°N, 13.63°E
Launch Date Jul 27, 2024
Age 2 years
Type internet

Technical Details

Classification Payload
Mass 730.00 kg
Dry Mass 700.00 kg
Total Mass 730.00 kg
Length 0.30 m
Diameter 4.10 m
Span 29.00 m
Shape Box + pan
Manufacturer SPXS
Bus Type Starlink V2M
Phase Status In Orbit
Owner/State SPXS/US

Most Searched